#timestamp,LO_Frequency,Hit,StdDev 
1635404415.5,286046999.0,N
1635404435.3,286046998.9,N
1635404455.2,286046998.4,N
1635404475.9,286046999.0,N
1635404495.7,286046998.5,N
1635404515.6,286047001.2,N
1635404535.4,286046998.7,N
1635404555.2,286046999.3,N
1635404575.1,286046998.9,N
1635404576.0,286046998.9,N
1635404595.8,286046996.8,N
1635404615.7,286046999.0,N
1635404635.5,286046999.4,N
1635404655.3,286046999.3,N
1635404675.2,286046999.0,N
1635404695.9,286046998.5,N
1635404715.7,286046999.0,N
1635404735.6,286046998.4,N
1635404755.4,286046996.7,N
1635404775.3,286046994.9,Y
1635404795.1,286046996.5,P
1635404796.0,286046996.5,N
1635404815.8,286046998.8,N
1635404835.7,286046998.7,N
1635404855.5,286046998.9,N
1635404875.3,286046999.5,N
1635404895.2,286046995.0,Y
1635404915.0,286047001.1,P
1635404915.9,286047001.1,N
1635404935.8,286046998.1,N
1635404955.6,286047000.6,N
1635404975.4,286047000.6,N
1635404995.3,286047000.5,N
1635405015.1,286046999.9,N
1635405035.9,286047000.9,N
1635405055.7,286046999.9,N
1635405075.5,286046999.8,N
1635405095.4,286047000.2,N
1635405115.2,286047000.0,N
1635405135.0,286047002.5,N
1635405136.0,286047002.5,N
1635405155.8,286047002.1,N
1635405175.6,286047002.5,N
1635405195.5,286047002.2,N
1635405215.3,286047001.4,N
1635405235.1,286047003.9,Y
1635405255.9,286047001.3,P
1635405275.7,286047004.3,P
1635405295.5,286047001.4,N
1635405315.4,286047003.7,N
1635405335.2,286047003.6,N
1635405355.1,286047001.7,N
1635405356.0,286047001.7,N
1635405375.8,286046999.9,N
1635405395.6,286047000.7,N
1635405415.5,286047000.1,N
1635405435.3,286047000.0,N
1635405455.1,286047000.3,N
1635405475.9,286047000.6,N
1635405495.7,286047000.7,N
1635405515.6,286047000.1,N
1635405535.4,286047004.0,N
1635405555.2,286047001.5,N
1635405575.1,286047002.4,N
1635405576.0,286047002.4,N
1635405595.8,286047004.3,Y
1635405615.7,286047000.2,P
1635405635.5,286047000.7,N
1635405655.3,286047001.1,N
1635405675.2,286047000.9,N
1635405695.9,286047000.6,N
1635405715.7,286046998.5,Y
1635405735.6,286046997.0,P
1635405755.4,286046998.4,N
1635405775.3,286046999.2,N
1635405795.1,286046996.7,N
1635405796.0,286046996.7,N
1635405815.8,286046999.6,N
1635405835.7,286046999.2,N
1635405855.5,286046997.4,N
1635405875.3,286046997.0,N
1635405895.2,286046996.9,N
1635405915.0,286046999.2,N
1635405915.9,286046999.2,N
1635405935.8,286046998.9,N
1635405955.6,286046998.7,N
1635405975.4,286046998.8,N
1635405995.3,286046998.4,N
1635406015.1,286046998.3,N
1635406035.9,286046998.2,N
1635406055.7,286046998.2,N
1635406075.5,286047000.4,N
1635406095.4,286046999.9,N
1635406115.2,286047000.0,N
1635406135.0,286047002.4,N
1635406135.9,286047002.4,N
1635406155.8,286047002.6,N
1635406175.6,286047001.9,N
1635406195.5,286047002.5,N
1635406215.3,286047000.1,N
1635406235.1,286047002.8,N
1635406255.9,286047002.7,N
1635406275.7,286047000.4,N
1635406295.5,286046999.5,N
1635406315.4,286046998.4,N
1635406335.2,286047000.7,N
1635406355.1,286046999.9,N
1635406356.0,286046999.9,N
1635406375.8,286046999.8,N
1635406395.6,286047000.3,N
1635406415.5,286047001.1,N
1635406435.3,286047000.4,N
1635406455.1,286047000.4,N
1635406475.9,286047000.1,N
1635406495.7,286047000.8,N
1635406515.6,286046998.9,N
1635406535.4,286046999.3,N
1635406555.2,286046998.5,N
1635406575.1,286047000.5,N
1635406576.0,286047000.5,N
1635406595.8,286047000.4,N
1635406615.7,286047000.2,N
1635406635.5,286047000.3,N
1635406655.3,286047000.3,N
1635406675.2,286047000.2,N
1635406695.9,286047000.5,N
1635406715.7,286047000.9,N
1635406735.6,286047000.4,N
1635406755.4,286047000.5,N
1635406775.3,286047001.2,N
1635406795.1,286046998.4,N
1635406815.8,286046998.2,N
1635406835.7,286046998.2,N
1635406855.5,286046998.5,N
1635406875.4,286046999.0,N
1635406895.2,286046998.3,N
1635406915.0,286046998.5,N
1635406915.9,286046998.5,N
1635406935.8,286047000.0,N
1635406955.6,286047000.5,N
1635406975.4,286047000.9,N
1635406995.3,286046998.7,N
1635407015.1,286047001.1,N
1635407035.9,286046998.1,N
1635407055.7,286047000.3,N
1635407075.5,286047000.5,N
1635407095.4,286047000.9,N
1635407115.2,286047000.3,N
1635407135.0,286047001.1,N
1635407135.9,286047001.1,N
1635407155.8,286047001.0,N
1635407175.6,286046998.1,N
1635407195.5,286046998.6,N
1635407215.3,286046998.8,N
1635407235.1,286046998.6,N
1635407255.9,286047000.8,N
1635407275.7,286047000.0,N
1635407295.5,286046999.8,N
1635407315.4,286047000.0,N
1635407335.2,286047001.0,N
1635407355.1,286046998.1,N
1635407356.0,286046998.1,N
1635407375.8,286047000.8,N
1635407395.6,286046999.0,N
1635407415.5,286046998.3,N
1635407435.3,286046999.2,N
1635407455.1,286046998.9,N
1635407475.9,286046998.8,N
1635407495.7,286046998.3,N
1635407515.6,286046999.0,N
1635407535.4,286046998.6,N
1635407555.2,286046999.3,N
1635407575.1,286047000.6,N
1635407576.0,286047000.6,N
1635407595.8,286046998.5,N
1635407615.7,286047001.1,N
1635407635.5,286047000.6,N
1635407655.3,286047001.9,N
1635407675.2,286047000.7,N
1635407695.9,286046998.9,N
1635407715.7,286046998.3,N
1635407735.6,286046998.1,N
1635407755.4,286047001.1,N
1635407775.3,286047000.6,N
1635407795.1,286046998.3,N
1635407796.0,286046998.3,N
1635407815.8,286046998.5,N
1635407835.7,286047000.9,N
1635407855.5,286047000.4,N
1635407875.3,286047000.8,N
1635407895.2,286047001.0,N
1635407915.0,286046999.8,N
1635407915.9,286046999.8,N
1635407935.8,286047002.0,N
1635407955.6,286047002.3,N
1635407975.4,286047002.3,N
1635407995.3,286047004.1,Y
